Probability
19 21 25 31 34 33 30 28 27 20 12 11 12 8 3 0 0 0 0 0 0 0 0 0 0 0 0 0 0 0 0 0 0 0 0 0 0 0 0 0 0 0 0
19 20 23 28 30 29 27 25 23 18 11 10 11 8 4 1 1 1 0 0 0 0 0 0 0 0 0 0 0 0 0 0 0 0 0 0 0 0 0 0 0 0 0
16 17 20 23 24 23 21 19 17 14 11 9 9 8 5 3 2 1 0 0 0 0 0 0 0 0 0 0 0 0 0 0 0 0 0 0 0 0 0 0 0 0 0
12 14 18 20 19 18 18 16 14 11 9 7 7 7 5 2 1 1 0 0 0 0 0 0 0 0 0 0 0 0 0 0 0 0 0 0 0 0 0 0 0 0 0
11 12 14 16 15 15 16 16 13 10 7 5 4 3 2 0 0 0 0 0 0 0 0 0 0 0 0 0 0 0 0 0 0 0 0 0 0 0 0 0 0 0 0
9 9 10 11 11 12 14 14 11 8 7 6 3 1 0 0 0 0 0 0 0 0 0 0 0 0 0 0 0 0 0 0 0 0 0 0 0 0 0 0 0 0 0
7 7 7 8 9 11 11 9 7 6 7 7 4 1 0 0 0 0 0 0 0 0 0 0 0 0 0 0 0 0 0 0 0 0 0 0 0 0 0 0 0 0 0
4 5 6 8 10 10 8 6 4 5 5 6 5 2 1 0 0 0 0 0 0 0 0 0 0 0 0 0 0 0 0 0 0 0 0 0 0 0 0 0 0 0 0
2 4 6 7 8 9 8 6 5 4 4 4 4 3 1 0 0 0 0 0 0 0 0 0 0 0 0 1 1 1 0 0 0 0 0 0 0 0 0 0 0 0 0
1 3 5 5 6 7 7 7 5 4 4 4 3 3 1 0 0 0 0 0 0 0 0 0 0 0 1 2 2 2 1 0 0 0 0 0 0 0 0 0 0 0 0
1 2 3 4 5 7 8 7 7 6 5 5 4 4 2 1 0 0 0 0 0 0 0 0 0 0 1 2 3 3 2 1 0 0 0 0 0 0 0 0 0 0 0
0 1 2 3 5 7 9 9 10 11 9 7 6 5 4 2 1 1 1 1 1 0 0 0 0 0 1 3 3 3 3 2 1 0 0 0 0 0 0 0 0 0 0
1 2 3 5 6 9 11 12 13 14 12 9 7 6 6 5 4 3 3 2 2 1 1 1 1 1 2 3 3 3 3 3 2 1 0 0 0 0 0 0 0 0 0
3 3 4 6 8 10 11 11 11 12 12 11 9 7 7 6 6 5 5 4 3 3 2 2 3 3 4 4 3 3 3 3 2 1 0 0 0 0 0 0 0 0 0
3 2 3 5 7 8 8 9 9 10 11 11 10 8 8 7 8 7 8 8 6 5 5 4 4 5 5 4 3 3 3 2 1 0 0 0 0 0 0 0 0 0 0
2 2 3 4 6 6 6 8 9 9 10 10 10 9 9 10 11 11 13 13 11 10 7 5 5 5 4 2 1 1 2 1 0 0 0 0 0 0 0 0 0 0 0
3 3 3 4 6 8 9 11 11 10 10 9 10 10 12 13 14 16 18 18 17 15 10 6 5 5 2 0 0 0 0 0 0 0 0 0 0 0 0 0 0 0 0
3 3 2 3 4 6 10 14 14 13 12 11 12 13 14 14 15 19 22 21 19 16 11 7 6 5 2 0 0 0 0 0 0 0 0 0 0 0 0 0 0 0 0
2 1 1 1 2 4 8 13 14 14 14 14 14 15 15 13 14 16 19 18 15 12 9 7 5 4 2 0 0 0 0 0 0 0 0 0 0 0 0 0 0 0 0
1 0 1 1 2 3 6 9 11 11 12 13 13 13 12 11 10 10 11 11 9 6 5 5 3 2 1 0 0 0 0 0 0 0 0 0 0 0 0 0 0 0 0
1 1 1 2 2 2 3 5 5 5 6 7 8 8 7 6 6 6 6 5 4 2 2 3 1 1 1 0 0 0 0 0 0 0 0 0 0 0 0 0 0 0 0
2 1 1 1 1 0 1 2 3 2 2 3 4 4 4 4 4 4 4 3 2 1 1 1 1 0 0 0 0 0 0 0 0 0 0 0 0 0 0 0 0 0 0
2 1 0 0 0 0 0 1 2 2 1 1 2 2 3 4 4 3 2 1 1 0 0 0 0 0 0 0 0 0 0 0 0 0 0 0 0 0 0 0 0 0 0
1 0 0 0 0 0 0 0 1 2 2 1 1 1 1 1 2 1 0 0 0 0 0 0 0 0 0 0 0 0 0 0 0 0 0 0 0 0 0 0 0 0 0
0 0 0 0 0 0 0 0 0 1 1 1 1 0 0 0 0 0 0 0 0 0 0 0 0 0 0 0 0 0 0 0 0 0 0 0 0 0 0 0 0 0 0
0 0 0 0 0 0 0 0 0 0 0 1 1 0 0 0 0 0 0 0 0 0 0 0 0 0 0 0 0 0 0 0 0 0 0 0 0 0 0 0 0 0 0
Wind_Speed
7 7 8 11 12 11 11 11 10 8 7 6 5 5 5 4 3 4 5 5 5 5 5 4 3 3 3 3 2 2 2 1 1 2 3 3 2 1 0 1 1 1 2
7 8 8 10 11 11 12 11 11 9 8 6 5 4 4 3 3 3 4 5 5 5 5 5 4 3 3 3 2 2 2 1 2 2 3 3 4 3 2 0 1 2 1
12 11 10 10 11 11 13 12 11 10 8 7 5 4 3 3 2 3 3 3 5 5 5 5 4 4 3 3 2 3 3 2 2 1 3 3 2 2 3 2 1 0 1
10 10 11 11 11 11 11 11 10 10 8 8 7 8 6 5 4 4 3 3 5 5 5 5 5 4 3 3 2 3 3 3 1 2 1 2 3 3 1 3 2 2 1
11 11 12 13 12 11 11 10 10 9 8 8 9 8 5 4 3 4 4 4 3 4 5 5 5 4 3 4 3 3 3 2 2 1 1 2 2 2 3 1 3 3 2
11 10 10 10 9 10 9 10 10 9 8 8 8 8 8 6 6 5 5 4 2 2 4 5 5 5 4 4 3 3 4 3 3 2 2 2 2 1 2 2 1 2 3
11 11 11 11 11 12 11 11 11 9 9 9 8 8 8 8 8 7 6 5 3 3 4 4 5 4 4 4 4 4 3 3 3 2 2 1 1 2 3 3 1 1 3
10 12 13 12 12 13 12 12 12 10 9 9 8 7 7 6 5 7 6 6 5 5 6 6 6 6 5 5 4 3 3 3 3 3 2 1 1 1 2 3 3 1 2
11 13 13 12 12 13 12 12 12 10 10 10 9 8 8 7 6 7 6 5 5 5 6 7 6 6 6 5 5 3 3 3 3 2 2 1 1 1 1 2 3 4 1
9 11 12 12 12 12 12 11 11 11 10 10 9 8 8 8 7 6 7 6 6 6 7 7 7 6 6 6 5 4 3 4 3 3 3 2 1 1 1 2 2 3 4
8 9 9 10 10 10 10 11 10 9 9 9 8 8 8 7 7 7 7 7 6 7 8 8 8 7 6 6 5 5 5 5 4 3 4 4 3 2 1 1 1 2 3
8 8 9 8 8 8 9 10 11 11 10 10 8 8 8 7 7 7 7 7 7 7 8 8 8 8 8 7 7 7 6 6 6 5 5 5 4 4 3 2 2 2 3
7 7 8 9 9 9 9 10 10 10 10 9 9 8 8 8 8 8 7 7 7 7 7 8 9 8 8 8 8 7 7 7 7 7 6 6 5 5 4 4 3 3 3
6 7 8 9 9 9 9 9 9 9 9 9 9 10 9 9 9 8 7 7 7 7 8 8 8 8 8 8 8 7 7 7 6 7 7 7 7 7 6 5 5 4 3
4 6 7 8 8 8 7 8 8 9 10 10 10 10 9 7 7 6 7 7 7 8 8 7 7 7 7 8 8 8 8 7 7 7 7 7 9 10 8 6 6 5 4
3 4 5 6 7 9 9 8 8 8 8 9 10 8 7 7 6 6 6 6 7 7 7 8 7 7 6 8 11 9 7 7 7 7 6 7 8 10 13 13 11 10 7
3 3 3 4 5 6 7 8 7 7 7 7 6 6 6 7 8 8 7 8 8 7 7 7 7 7 7 9 10 11 7 6 7 7 6 6 6 7 6 9 11 12 14
5 4 3 3 2 3 4 5 5 5 5 4 3 3 4 5 5 5 6 6 5 6 6 7 7 7 8 10 11 11 8 7 7 7 7 7 6 5 5 5 6 7 8
7 5 4 5 5 5 5 6 6 5 4 3 2 2 3 3 3 3 4 4 4 5 6 6 7 7 6 9 10 9 4 4 6 5 5 6 6 7 8 5 6 7 8
8 8 8 9 9 6 6 9 7 6 5 3 2 2 3 3 3 3 3 2 3 4 4 4 4 5 5 7 10 9 3 4 4 3 4 7 7 7 7 6 6 8 8
10 9 10 10 8 7 8 10 8 6 3 3 3 4 3 2 2 2 2 2 2 2 2 2 2 3 4 5 8 9 5 5 4 4 4 4 6 7 7 7 6 10 9
10 9 10 10 8 7 9 9 7 4 4 5 5 5 4 3 2 2 1 1 2 2 2 1 1 1 1 2 3 6 7 5 4 4 4 4 6 7 8 7 9 12 9
9 8 9 10 9 8 8 8 5 4 5 6 5 4 4 4 3 3 2 1 1 1 1 1 1 0 1 1 0 2 4 6 4 4 5 6 8 8 7 9 11 9 5
8 7 9 10 8 8 8 7 5 5 6 6 4 4 4 4 4 3 2 2 1 1 1 1 1 0 0 0 0 0 1 2 3 3 5 7 7 7 7 7 6 5 5
6 7 8 8 7 6 7 7 6 6 7 6 5 4 3 3 3 3 2 1 0 1 2 2 2 2 1 2 2 1 0 0 1 1 2 2 3 3 4 4 4 4 4
6 7 7 7 6 6 6 6 6 6 7 6 5 4 3 3 2 2 3 4 1 1 1 2 2 2 3 3 2 2 1 1 1 1 1 3 4 4 5 5 5 4 4
Wind_Direction
169 160 159 160 160 162 157 154 153 156 151 146 147 147 149 151 148 157 150 143 139 132 125 122 120 113 114 124 117 99 74 47 56 61 26 2 3 13 202 174 153 174 183
160 167 165 165 164 165 163 160 161 166 165 163 154 146 143 150 153 154 145 149 146 142 137 135 135 126 115 105 94 94 89 34 58 105 86 30 359 350 1 329 173 164 161
172 173 172 172 171 170 168 169 168 169 168 158 136 126 107 103 115 137 148 160 151 146 140 141 136 134 128 131 122 112 113 92 23 88 133 134 196 309 333 340 347 133 163
176 176 175 173 179 178 169 166 166 167 167 159 156 156 155 160 172 166 163 160 151 146 144 143 143 141 134 138 136 114 112 113 71 11 45 136 153 141 349 331 335 322 247
177 175 176 176 177 173 169 168 166 167 167 167 164 160 157 159 149 146 151 155 152 153 150 146 143 144 140 143 131 113 107 112 120 106 72 62 60 92 128 289 322 333 316
175 174 174 167 170 169 170 167 168 172 171 170 167 164 164 159 152 158 165 168 160 160 160 151 149 152 148 148 145 134 125 122 116 110 107 120 114 125 129 152 277 300 302
173 173 172 171 172 173 173 171 171 175 174 173 174 173 173 168 169 170 175 172 171 180 186 163 160 160 161 156 147 141 142 139 132 133 130 131 147 156 143 134 159 323 311
175 177 178 177 176 178 176 175 177 178 177 178 178 177 176 175 177 178 176 181 185 189 184 175 174 172 166 161 152 147 160 149 149 145 142 135 143 144 152 152 139 71 340
181 182 180 179 179 179 182 182 181 181 182 181 178 180 179 178 179 180 179 183 188 189 183 179 177 174 170 165 156 163 176 162 166 167 160 158 185 151 150 150 148 144 150
188 185 182 182 184 185 185 184 184 184 184 181 182 187 184 182 180 179 185 188 191 188 177 180 178 175 175 172 165 169 180 172 181 180 173 181 194 168 144 146 148 147 156
190 185 183 185 183 182 183 185 185 182 183 183 184 182 183 184 180 184 190 189 188 183 181 181 179 179 181 178 175 184 182 185 197 195 190 206 202 195 194 159 145 154 152
180 174 174 175 175 179 183 187 185 184 186 184 182 185 184 182 184 191 193 187 185 184 182 179 180 186 187 184 184 193 191 193 200 203 196 210 206 206 207 192 194 195 187
176 174 172 174 178 180 184 184 186 189 186 182 184 189 189 189 195 196 193 187 184 184 183 180 185 192 192 192 195 195 197 199 204 203 201 207 199 210 211 207 210 215 209
167 172 176 178 178 178 179 181 185 186 183 184 189 196 199 199 201 198 194 192 188 186 189 191 193 194 194 196 199 199 203 204 207 208 208 208 202 208 209 212 214 211 215
145 162 173 178 175 172 178 182 187 187 186 187 196 202 201 201 199 198 200 197 194 196 194 195 199 198 196 202 200 203 206 207 213 216 215 216 214 213 209 209 208 205 212
135 143 151 164 172 176 182 184 186 188 183 189 197 197 192 195 199 202 205 202 202 199 193 197 198 200 209 211 205 202 206 206 213 222 226 229 228 229 227 226 217 203 206
116 127 141 165 177 180 180 184 187 182 179 187 192 194 192 197 205 205 202 209 208 200 197 200 195 199 205 200 203 207 202 207 213 218 222 234 233 228 231 239 239 231 227
74 77 89 116 127 134 139 140 140 145 151 165 171 173 178 187 191 192 201 207 203 197 200 204 203 203 210 207 208 209 204 211 217 215 215 222 235 231 227 236 245 245 242
70 63 66 80 79 84 99 100 97 107 119 129 150 163 158 161 179 202 207 204 196 199 204 201 206 207 216 213 215 211 207 221 228 226 226 224 231 240 236 234 248 260 262
67 64 59 63 64 62 79 84 81 81 84 94 119 125 131 149 177 206 210 197 185 197 198 202 207 207 215 215 214 208 207 225 237 238 238 235 238 246 241 231 238 256 265
71 70 69 64 57 63 80 81 74 69 70 78 80 82 94 127 162 184 191 165 160 165 190 203 214 215 219 224 217 206 204 221 233 240 242 239 238 244 245 236 234 248 260
70 69 72 64 50 55 77 78 68 52 54 62 64 60 57 55 62 78 81 118 146 156 184 187 200 198 196 195 212 211 215 221 229 245 247 243 253 257 259 254 252 260 265
75 70 74 68 53 46 60 69 51 52 62 60 57 56 54 49 52 67 62 49 85 149 166 144 138 77 59 68 123 206 223 236 237 253 264 275 278 280 273 265 267 269 256
76 74 74 70 56 45 50 51 41 51 63 59 46 42 48 40 35 47 61 76 73 90 96 111 133 136 5 352 10 306 252 255 255 270 287 293 288 277 270 275 275 259 246
77 76 78 75 63 51 47 42 43 52 56 52 44 39 38 41 37 31 33 54 65 148 144 165 169 160 198 248 219 191 250 290 272 303 306 300 298 295 291 286 280 274 270
80 76 73 73 64 58 50 38 41 52 55 45 36 34 30 29 35 34 18 17 19 24 101 182 184 207 215 219 212 219 237 239 215 167 276 280 278 276 277 279 280 274 269